Total_Precipitation_Accumulation
0.70 0.70 0.73 0.67 0.63 0.62 0.65 0.81 1.05 0.89 0.46 0.26 0.23 0.25 0.30 0.36 0.45 0.50 0.48 0.57 0.64 0.69 0.79 0.90 0.97 1.03 1.19 1.54 2.27 3.17 3.89 4.06 3.78 3.27 3.03 3.26 3.62 4.10
0.77 0.77 0.77 0.74 0.71 0.68 0.69 0.72 0.86 1.03 0.76 0.31 0.25 0.26 0.33 0.38 0.47 0.50 0.48 0.56 0.61 0.68 0.72 0.77 0.88 1.01 1.14 1.29 1.62 2.32 3.12 3.78 4.05 4.00 3.78 3.70 3.90 4.20
0.89 0.89 0.82 0.78 0.81 0.79 0.77 0.77 0.77 0.90 0.92 0.42 0.27 0.29 0.41 0.49 0.49 0.49 0.48 0.50 0.52 0.62 0.68 0.72 0.77 0.87 1.01 1.16 1.33 1.72 2.40 3.08 3.68 4.09 4.30 4.25 4.19 4.21
0.99 0.97 0.91 0.89 0.88 0.86 0.91 0.89 0.82 0.80 0.91 0.69 0.38 0.34 0.40 0.49 0.53 0.54 0.52 0.50 0.49 0.57 0.63 0.71 0.77 0.84 0.92 1.04 1.19 1.37 1.75 2.30 2.90 3.48 3.90 4.02 4.06 4.27
1.03 1.07 1.04 1.03 1.01 0.96 0.97 0.99 0.94 0.86 0.88 0.89 0.59 0.43 0.44 0.51 0.61 0.62 0.60 0.61 0.58 0.61 0.64 0.70 0.80 0.86 0.91 0.99 1.12 1.26 1.38 1.63 2.06 2.72 3.40 3.70 3.73 3.81
1.06 1.10 1.14 1.17 1.16 1.16 1.21 1.19 1.17 1.17 1.10 1.07 0.87 0.66 0.61 0.61 0.72 0.74 0.69 0.67 0.70 0.67 0.70 0.70 0.76 0.83 0.87 0.89 0.93 1.01 1.19 1.50 1.83 2.22 2.78 3.23 3.35 3.37
1.16 1.14 1.15 1.26 1.40 1.55 1.67 1.59 1.48 1.51 1.44 1.37 1.19 0.96 0.81 0.82 0.90 0.85 0.85 0.76 0.78 0.79 0.77 0.72 0.71 0.70 0.75 0.86 0.95 1.02 1.10 1.28 1.55 1.88 2.31 2.77 3.09 3.16
1.13 1.06 1.05 1.12 1.21 1.36 1.55 1.56 1.54 1.67 1.74 1.65 1.47 1.25 0.97 0.87 0.97 1.12 1.19 1.20 1.08 0.88 0.89 0.88 0.83 0.83 0.81 0.83 0.97 1.04 1.14 1.29 1.42 1.62 1.98 2.34 2.72 3.07
0.93 0.91 0.90 0.94 1.04 0.99 1.14 1.23 1.28 1.37 1.54 1.67 1.72 1.42 1.17 1.07 1.28 1.47 1.46 1.42 1.15 0.96 1.11 1.21 1.07 1.02 0.94 0.97 1.06 1.03 1.12 1.24 1.38 1.51 1.67 1.96 2.32 2.73
0.87 0.87 0.85 0.83 0.90 1.06 1.14 1.11 1.03 1.04 1.22 1.41 1.59 1.47 1.36 1.40 1.67 1.92 1.97 1.95 1.61 1.27 1.24 1.46 1.29 1.23 1.16 1.11 1.13 1.05 1.09 1.15 1.24 1.39 1.57 1.75 1.99 2.32
0.92 0.94 0.94 0.85 0.97 1.18 1.24 1.19 1.02 0.93 1.01 1.25 1.46 1.57 1.65 1.81 2.06 2.38 2.48 2.53 2.31 1.82 1.53 1.57 1.47 1.39 1.37 1.32 1.28 1.22 1.15 1.14 1.15 1.24 1.41 1.60 1.84 2.11
0.94 0.99 1.14 1.10 1.12 1.20 1.23 1.29 1.25 0.99 0.88 0.94 1.03 1.14 1.24 1.42 1.77 2.03 2.22 2.45 2.38 2.21 1.79 1.71 1.69 1.67 1.81 1.51 1.30 1.21 1.16 1.20 1.16 1.11 1.17 1.33 1.60 1.79
1.02 1.04 1.08 1.20 1.19 1.22 1.26 1.25 1.29 1.15 1.04 1.06 1.03 0.99 1.06 1.20 1.39 1.65 1.92 2.20 2.37 2.23 1.80 1.92 2.09 1.94 1.93 1.69 1.39 1.25 1.17 1.11 1.03 1.03 1.06 1.16 1.37 1.57
1.06 0.94 1.01 1.19 1.20 1.25 1.22 1.25 1.30 1.26 1.17 1.14 1.06 0.96 0.96 1.09 1.19 1.38 1.68 1.86 1.98 2.00 1.78 1.99 2.33 2.07 2.02 1.81 1.54 1.40 1.28 1.20 1.08 0.98 0.93 1.12 1.27 1.46
1.14 1.22 1.16 1.19 1.20 1.13 1.11 1.17 1.18 1.12 1.18 1.16 1.02 0.87 0.83 0.94 1.08 1.26 1.49 1.72 1.83 1.85 1.84 1.86 2.09 2.10 2.15 2.01 1.60 1.41 1.43 1.41 1.23 1.10 1.01 0.97 1.02 1.19
1.19 1.28 1.27 1.19 1.17 1.13 1.10 1.08 1.03 1.08 1.14 1.09 0.95 0.84 0.84 0.96 1.13 1.26 1.45 1.64 1.88 1.88 1.82 1.86 2.04 2.31 2.34 1.92 1.69 1.54 1.40 1.52 1.41 1.25 1.14 1.06 1.01 1.02
1.44 1.42 1.35 1.28 1.28 1.18 1.09 1.04 1.02 1.08 1.13 1.00 0.97 0.97 0.99 1.05 1.13 1.19 1.36 1.52 1.73 1.69 1.71 1.87 2.06 2.25 2.38 2.25 2.04 1.66 1.45 1.39 1.36 1.33 1.27 1.22 1.17 1.12
1.47 1.44 1.28 1.17 1.14 1.11 1.11 1.09 1.03 0.99 0.98 0.99 1.02 1.02 1.04 1.07 1.11 1.13 1.25 1.42 1.54 1.52 1.56 1.72 1.98 2.24 2.45 2.56 2.28 1.84 1.56 1.45 1.42 1.39 1.32 1.29 1.30 1.27
1.20 1.12 1.05 1.02 1.03 1.03 1.03 1.03 0.98 0.89 0.91 1.01 1.05 1.05 1.06 1.10 1.13 1.15 1.20 1.32 1.41 1.45 1.52 1.64 1.88 2.14 2.22 2.20 2.29 2.00 1.73 1.58 1.52 1.55 1.47 1.31 1.29 1.30
0.98 0.96 0.95 0.94 0.97 1.01 0.99 0.97 0.94 0.91 0.95 1.00 1.03 1.04 1.08 1.14 1.15 1.12 1.13 1.24 1.33 1.38 1.45 1.56 1.75 2.01 2.17 2.03 2.05 2.05 1.99 1.77 1.61 1.62 1.58 1.46 1.40 1.45
0.87 0.86 0.87 0.92 0.94 0.93 0.91 0.91 0.92 0.92 0.91 0.95 0.99 1.02 1.05 1.12 1.12 1.04 1.06 1.16 1.26 1.31 1.35 1.34 1.46 1.75 2.05 2.11 2.03 1.88 1.95 2.06 1.83 1.67 1.62 1.64 1.62 1.59
0.79 0.80 0.81 0.85 0.91 0.94 0.92 0.90 0.91 0.88 0.88 0.92 0.93 0.94 0.97 1.04 1.06 1.03 1.06 1.13 1.15 1.17 1.23 1.26 1.33 1.59 1.96 2.17 2.05 1.83 1.83 2.02 2.20 2.02 1.76 1.66 1.79 1.90
0.82 0.81 0.79 0.81 0.86 0.91 0.94 0.94 0.90 0.83 0.82 0.87 0.88 0.88 0.91 0.97 0.96 0.99 1.03 1.06 1.10 1.12 1.18 1.28 1.33 1.50 1.78 1.96 2.05 1.96 1.83 1.84 1.94 2.06 2.15 1.89 1.56 1.49